Tracking 35280 objects as of 7-Sep-2026
HD Live streaming from Space Station
objects crossing your sky now

SL-3 R/B

Track SL-3 R/B now!
10-day predictions


NORAD ID: 13121
Int'l Code: 1982-027B
Launch date: March 31, 1982
Source: Commonwealth of Independent States (former USSR) (CIS)
Launch site: PLESETSK MISSILE AND SPACE COMPLEX (PKMTR)

Note: This is a ROCKET BODY
Your satellite tracking list
Your tracking list is empty




NASA's NSSDC Master Catalog

Two Line Element Set (TLE):
1 13121U 82027B   26250.24524360  .00004235  00000-0  14381-3 0  9992
2 13121  81.1885 182.8307 0008757  26.4394 333.7287 15.30228729426302
Source of the keplerian elements: AFSPC